Meridian NAS, MS

6:21 AM CDT on April 27, 2017 (GMT -0500)
Meridian Naval Air Station

Weather History for KNMM - May, 2013

Change the Weather History Date:

Thursday, May 9, 2013

  Actual Average Record
Temperature  
Mean Temperature 68 °F -  
Max Temperature 82 °F 80 °F 90 °F (2002)
Min Temperature 55 °F 58 °F 54 °F (2007)
Cooling Degree Days 4    
Growing Degree Days 18 (Base 50)    
Moisture  
Dew Point 58 °F    
Average Humidity 69    
Maximum Humidity 93    
Minimum Humidity 45    
Precipitation  
Precipitation 0.01 in - - ()
Sea Level Pressure  
Sea Level Pressure 30.11 in    
Wind  
Wind Speed 3 mph (SSW)    
Max Wind Speed 9 mph    
Max Gust Speed -    
Visibility 10 miles    
Events      
Averages and records for this station are not official NWS values.
T = Trace of Precipitation, MM = Missing Value Source: NWS Daily Summary

Daily Weather History Graph

Daily Weather History Graph

Search for Another Location

Airport or City:

Trip Planner

Search our weather history database for the weather conditions in past years. The results will help you decide how hot, cold, wet, or windy it might be!

Date:

Astronomy

May. 09, 2013 Rise Set
Actual Time 6:00 AM CDT 7:41 PM CDT
Civil Twilight 5:33 AM CDT 8:08 PM CDT
Nautical Twilight 5:01 AM CDT 8:40 PM CDT
Astronomical Twilight 4:27 AM CDT 9:14 PM CDT
Moon 5:42 AM CDT (5/9) 7:36 PM CDT (5/9)
Length of Visible Light 14h 35m
Length of Day
13h 41m
Waning Crescent, 0% of the Moon is Illuminated
May 9
Waning Crescent
May 9
New
May 17
First Quarter
May 24
Full
May 31
Last Quarter

Hourly Weather History & Observations

Time (CDT) Temp. Heat Index Dew Point Humidity Pressure Visibility Wind Dir Wind Speed Gust Speed Precip Events Conditions
12:56 AM 59.0 °F - 55.9 °F 90% 30.09 in 10.0 mi Calm Calm - N/A   Clear
1:56 AM 57.0 °F - 55.0 °F 93% 30.09 in 9.0 mi Calm Calm - N/A   Clear
2:56 AM 55.0 °F - 53.1 °F 93% 30.09 in 9.0 mi SSE 3.5 mph - N/A   Clear
3:56 AM 55.9 °F - 53.1 °F 90% 30.09 in 10.0 mi Calm Calm - N/A   Clear
4:56 AM 55.9 °F - 53.1 °F 90% 30.09 in 10.0 mi Calm Calm - N/A   Clear
5:56 AM 57.0 °F - 53.1 °F 87% 30.11 in 10.0 mi Calm Calm - 0.01 in   Clear
6:56 AM 59.0 °F - 55.0 °F 87% 30.13 in 10.0 mi Calm Calm - N/A   Scattered Clouds
7:56 AM 64.9 °F - 59.0 °F 81% 30.15 in 10.0 mi West 3.5 mph - N/A   Clear
8:56 AM 70.0 °F - 61.0 °F 73% 30.16 in 10.0 mi West 6.9 mph - N/A   Scattered Clouds
9:56 AM 73.9 °F - 62.1 °F 66% 30.15 in 10.0 mi Variable 3.5 mph - N/A   Clear
10:56 AM 77.0 °F - 60.1 °F 56% 30.16 in 10.0 mi SSW 8.1 mph - N/A   Scattered Clouds
11:56 AM 81.0 °F 81.3 °F 59.0 °F 47% 30.16 in 10.0 mi WSW 5.8 mph - N/A   Scattered Clouds
12:56 PM 81.0 °F 81.3 °F 59.0 °F 47% 30.15 in 10.0 mi South 4.6 mph - N/A   Mostly Cloudy
1:56 PM 82.0 °F 82.1 °F 59.0 °F 45% 30.14 in 10.0 mi Variable 6.9 mph - N/A   Scattered Clouds
2:56 PM 80.1 °F 80.7 °F 59.0 °F 48% 30.11 in 10.0 mi SW 3.5 mph - N/A   Scattered Clouds
3:56 PM 81.0 °F 81.3 °F 59.0 °F 47% 30.08 in 10.0 mi SSW 6.9 mph - N/A   Scattered Clouds
4:56 PM 81.0 °F 81.3 °F 59.0 °F 47% 30.07 in 10.0 mi South 9.2 mph - N/A   Mostly Cloudy
5:56 PM 79.0 °F - 60.1 °F 52% 30.06 in 10.0 mi South 3.5 mph - N/A   Mostly Cloudy
6:56 PM 77.0 °F - 62.1 °F 60% 30.06 in 10.0 mi Calm Calm - N/A   Mostly Cloudy
7:56 PM 72.0 °F - 63.0 °F 73% 30.07 in 10.0 mi Calm Calm - N/A   Mostly Cloudy
8:56 PM 70.0 °F - 62.1 °F 76% 30.07 in 10.0 mi SSE 4.6 mph - N/A   Mostly Cloudy
9:56 PM 71.1 °F - 61.0 °F 70% 30.09 in 10.0 mi SSW 4.6 mph - N/A   Mostly Cloudy
10:56 PM 70.0 °F - 60.1 °F 71% 30.08 in 10.0 mi South 5.8 mph - N/A   Overcast
11:56 PM 69.1 °F - 59.0 °F 70% 30.08 in 10.0 mi South 4.6 mph - N/A   Overcast